Weather in Zalivnoy

Russia / Samara Oblast     53°02′57″N   51°26′16″E
temp.,
°C
wind,
m/s
gust,
m/s
humid.,
%
clouds,
%
prec.,
mm/h
press.,
hPa
HPBL,
m
1 march, mon
mon101:00−14nnw479595 0.2 1014222
04:00−19nw349683 0.3 101651
07:00−20nw339771 0.0 101838
10:00−18nw369473 0.0 1020207
13:00−16nw359247 0.0 1021308
16:00−15nw469161 0.0 1022396
19:00−19nw229626 0.0 102220
22:00−20wsw239813 0.0 102220
2 march, tue
tue201:00−20sw339937 0.0 102130
04:00−17sw479862 0.0 1019145
07:00−13sw61193100 0.0 1015308
10:00−10sw71393100 0.3 1012508
13:00−6sw81494100 0.9 1009681
16:00−2sw81395100 2.2 1006732
19:00−2sw81496100 1.7 1003695
22:00−1wsw71397100 3.1 1002628
3 march, wed
wed301:000wnw4798100 0.9 1001402
04:00−5wnw349797 0.9 100248
07:00−8wnw2395100 0.1 100229
10:00−7w249590 0.1 1004149
13:00−4w349271 0.0 1004323
16:00−3wnw359382 0.1 1004470
19:00−4wnw3796100 0.1 1005317
22:00−9nw479394 0.2 100797
4 march, thu
thu401:00−10wnw489584 0.1 1008197
04:00−13w469778 0.1 100994
07:00−15wsw449665 0.0 101072
10:00−10wsw699461 0.1 1010334
13:00−7sw61093100 0.1 1009443
16:00−5sw81392100 0.1 1008758
19:00−3sw91591100 0.3 1006894
22:00−1sw101795100 0.6 1004885
5 march, fri
fri501:000sw101689100 0.3 10021053
04:00−1sw101886100 0.3 1001918
07:00−1wsw10178999 0.1 1002875
10:000wsw91490100 0.3 1005985
13:00−1wnw5978100 0.5 1008617
16:00−2nw3585100 0.5 1011353
19:00−8n228597 0.0 101221
22:00−11nne128282 0.0 101421